Back to catalog

STARLINK-32936

AliveCommunicationsVLEO
NORAD 63147·PAYLOAD·🇺🇸 United States

Launched Mar 3, 2025 from Cape Canaveral Space Force Station

Loading…

Next Passes (next 24 hours)

TLE

FreshSource: CelesTrak SupGP

Epoch: Sep 14, 2026, 21:13 UTC

1 63147C 25043R   26257.88451389  .00053271  00000+0  19294-2 0  2574
2 63147  43.0033  34.6124 0001859 277.8946 242.0125 15.27552647    13

Track STARLINK-32936 in real time with AllMySat

Download on the App Store